Regional Weather Roundup
Issued by NWS

Home | Current Version | Previous Version | Text Only | Print | Product List | Glossary Off
Versions: 1 2 3 4 5 6 7 8 9 10 11 12 13 14 15 16 17 18 19 20 21 22 23 24 25 26 27 28 29 30 31 32 33 34 35 36 37 38 39 40 41 42 43 44 45 46 47 48 49 50

000
ASUS43 KDTX 241110
RWRMI
MICHIGAN HOURLY REGIONAL WEATHER ROUNDUP
NATIONAL WEATHER SERVICE DETROIT/PONTIAC MI
700 AM EDT FRI MAR 24 2017

NOTE: "FAIR" INDICATES FEW OR NO CLOUDS BELOW 12,000 FEET WITH NO
SIGNIFICANT WEATHER AND/OR OBSTRUCTION TO VISIBILITY.

MIZ047>049-052>055-059>063-066>070-074>076-081>083-241200-
SOUTHEAST LOWER MICHIGAN

CITY           SKY/WX    TMP DP  RH WIND       PRES   REMARKS
ADRIAN         CLOUDY    43  37  79 SW7       30.03S
ALMA           CLOUDY    40  37  90 S6        29.94S
ANN ARBOR      CLOUDY    40  37  89 S7        30.00F
BAD AXE        CLOUDY    37  32  84 CALM      29.97R
CARO           DRIZZLE   43  37  82 S7        29.94R
DETROIT CITY   CLOUDY    44  36  73 SW13      30.01F
DETROIT        MOCLDY    43  37  79 S8        30.02F
FLINT          CLOUDY    46  37  71 S13       29.96F
GROSSE ILE     MOCLDY    39  36  89 S9        30.01F WCI  33
HILLSDALE      CLOUDY    45  36  70 S10G18    30.00R
HOWELL         CLOUDY    44  35  73 S8G17     29.97F

CITY           SKY/WX    TMP DP  RH WIND       PRES   REMARKS
JACKSON        CLOUDY    48  38  68 SW12      29.99S
LAMBERTVILLE   CLOUDY    48  39  69 S10       30.02F
LANSING        LGT RAIN  46  36  68 S8        29.96S
LAPEER         FAIR      43  37  78 S7        29.96F
MASON          PTCLDY    41  38  87 S3        29.96S
MONROE         CLOUDY    47  39  74 S9G24     30.01F
MT. CLEMENS    CLOUDY    42  37  82 SW8       29.98F
PONTIAC        PTCLDY    45  36  70 SW8       29.98F
PORT HOPE        N/A     35  32  88 SE5       29.96F WCI  31
PORT HURON     CLOUDY    39  36  87 S5        30.00F
TRI CITIES     CLOUDY    40  38  93 SW7       29.95R
MIDLAND        MOCLDY    39  34  83 N3        29.94R
TROY           CLOUDY    44  37  74 SW7       30.01F
SAGINAW HB     CLOUDY    39  36  87 S7        29.94R WCI  34
$$
MIZ043>046-050>051-056>058-064>065-071>073-077>080-241200-
SOUTHWEST LOWER MICHIGAN

CITY           SKY/WX    TMP DP  RH WIND       PRES   REMARKS
BATTLE CREEK   CLOUDY    47  39  74 S13       29.97S
BENTON HARBOR  PTCLDY    52  39  61 S9        29.95R
BIG RAPIDS     CLOUDY    38  37  92 CALM      29.92R
COLDWATER      CLOUDY    49  38  66 S9G16     29.99S
FREMONT        DRIZZLE   40  38  92 CALM      29.92S
HOLLAND        CLOUDY    50  40  68 S13       29.92S
GRAND RAPIDS   MOCLDY    46  37  71 S7        29.93S
IONIA          FAIR      44  37  75 SW7       29.94R
KALAMAZOO      PTCLDY    49  38  65 S13       29.97R
LUDINGTON      CLOUDY    45  37  73 SW7       29.92R
MARSHALL       CLOUDY    49  39  68 S8        29.97R
MOUNT PLEASANT LGT RAIN  38  36  92 CALM      29.93R
MUSKEGON       CLOUDY    48  37  65 S14       29.92S
SOUTH HAVEN    MOCLDY    51  39  64 S8        29.94S
$$
MIZ016>042-241200-
NORTHERN LOWER MICHIGAN

CITY           SKY/WX    TMP DP  RH WIND       PRES   REMARKS
ALPENA         FRZ RAIN  33  32  96 SE9       29.97S WCI  25
BEAVER ISLAND  CLOUDY    33  32  97 SE3       29.91R
BELLAIRE       LGT SNOW  34  33  95 SW3       29.94R
CADILLAC       CLOUDY    39  36  87 SW5       29.91S
CHARLEVOIX     LGT RAIN  34  34 100 SE3       29.93F
FRANKFORT      CLOUDY    40  35  83 SW5       29.92S
GAYLORD        FRZ RAIN  34  29  82 S6        29.89F WCI  29
GRAYLING       MIX PCPN  32  32 100 CALM      29.93F
HARBOR SPRINGS LGT SNOW  32  32  99 CALM      29.92R
HOUGHTON LAKE  CLOUDY    36  32  85 CALM      29.94R
MANISTEE       CLOUDY    42  36  79 SW7       29.92R
OSCODA         CLOUDY    34  32  94 CALM      29.97R FOG
PELLSTON       FRZ RAIN  33  31  92 CALM      29.94R
ROGERS CITY    MIX PCPN  33  31  93 S8        29.93F WCI  26
TRAVERSE CITY  LGT RAIN  37  35  92 S3        29.91S
$$
MIZ007>008-015-241200-
EASTERN UPPER MICHIGAN

CITY           SKY/WX    TMP DP  RH WIND       PRES   REMARKS
KINROSS        MIX PCPN  31  30  96 E5        29.92R WCI  26
MACKINAC ISLAN MIX PCPN  32  32 100 CALM      29.92R
NEWBERRY       MIX PCPN  31  31  97 CALM      29.90F
S. S. MARIE    FRZ RAIN  33  31  92 CALM      29.94R
MUNISING         N/A     33  33 100 CALM      29.89F
$$
MIZ004>006-011>014-085-241200-
CENTRAL UPPER MICHIGAN

CITY           SKY/WX    TMP DP  RH WIND       PRES   REMARKS
MANISTIQUE     MIX PCPN  32  32 100 CALM      29.90F
ESCANABA       LGT RAIN  34  33  96 W3        29.91R FOG
MENOMINEE        N/A    N/A N/A N/A MISG        N/A
SAWYER-GWINN   FRZ DRZL  32  32 100 CALM      29.90R
$$
MIZ001>003-009>011-084-241200-
WESTERN UPPER MICHIGAN

CITY           SKY/WX    TMP DP  RH WIND       PRES   REMARKS
IRON MOUNTAIN  CLOUDY    32  29  88 N3        29.88F FOG
HOUGHTON       CLOUDY    33  31  92 NW8       29.87S FOG     WCI  26
COPPER HARBOR    N/A     33  32  96 CALM      29.88F
IRONWOOD       CLOUDY    33  32  96 S3        29.90R FOG
$$

ABBREVIATIONS USED IN REMARKS
   TC - TEMPERATURE IN CELSIUS
  WCI - WIND CHILL INDEX
   HX - HEAT INDEX
  VSB - VISIBILITY




USA.gov is the U.S. government's official web portal to all federal, state and local government web resources and services.